Regional Weather Roundup
Issued by NWS

Home | Current Version | Previous Version | Graphics & Text | Print | Product List | Glossary On
Versions: 1 2 3 4 5 6 7 8 9 10 11 12 13 14 15 16 17 18 19 20 21 22 23 24 25 26 27 28 29 30 31 32 33 34 35 36 37 38 39 40 41 42 43 44 45 46 47 48 49 50
000
ASUS44 KMEG 060800
RWRTN
TENNESSEE HOURLY STATE WEATHER ROUNDUP
NATIONAL WEATHER SERVICE MEMPHIS TN
300 AM CDT MON JUL 06 2015

TNZ002-004-019-021-049-052-054-088>092-060900-
WEST TENNESSEE

CITY           SKY/WX    TMP DP  RH WIND       PRES   REMARKS
MEMPHIS INTL   CLEAR     70  67  90 S5        30.04S
NWS MEMPHIS      N/A     69 N/A N/A MISG        N/A
JACKSON        CLEAR     71  68  90 SW6       30.05F
DYERSBURG        N/A    N/A N/A N/A MISG        N/A
PARIS          MOCLDY    70  70 100 SW5       30.06R
LEXINGTON      CLEAR     68  68 100 S3        30.06R
$$

TNZ008-025-027-028-033-062-065-066-060900-
NORTH MIDDLE TENNESSEE

CITY           SKY/WX    TMP DP  RH WIND       PRES   REMARKS
NASHVILLE      CLEAR     71  71 100 SW3       30.06R
CLARKSVILLE    PTCLDY    71  69  93 SW3       30.05R FOG
COOKEVILLE     CLEAR     66  66 100 CALM      30.08S
CROSSVILLE     CLOUDY    68  64  87 W3        30.13R FOG
$$

TNZ061-075-076-078-094-096-097-060900-
SOUTH MIDDLE TENNESSEE

CITY           SKY/WX    TMP DP  RH WIND       PRES   REMARKS
FAYETTEVILLE   PTCLDY    66  66 100 CALM      30.09S
TULLAHOMA      CLOUDY    66  66 100 CALM      30.10S VSB 1/2
WINCHESTER     CLEAR     68  66  94 CALM      30.10R
COLUMBIA       CLEAR     70  70 100 S3        30.07R
SHELBYVILLE    CLEAR     70  68  94 CALM        N/A
$$

TNZ017-018-042-046-047-060900-
NORTHEAST TENNESSEE

CITY           SKY/WX    TMP DP  RH WIND       PRES   REMARKS
TRI CITIES     CLOUDY    68  66  93 SW7       30.09S
ELIZABETHTON   DRIZZLE   64  64 100 W6        30.10S
$$

TNZ012-013-036-069-073-074-060900-
CENTRAL EAST TENNESSEE

CITY           SKY/WX    TMP DP  RH WIND       PRES   REMARKS
KNOXVILLE      PTCLDY    68  65  90 W5        30.07F
OAK RIDGE      CLEAR     69  66  90 CALM      30.09F
GATLINBURG     MOSUNNY   66  64  94 CALM      30.08S
$$

TNZ083-085-099-060900-
SOUTHEAST TENNESSEE

CITY           SKY/WX    TMP DP  RH WIND       PRES   REMARKS
CHATTANOOGA    MOCLDY    70  67  90 CALM      30.08S
$$

SKY/WX REPORTED AS FAIR MEANS FEW OR NO CLOUDS BELOW
12 THOUSAND FEET.



USA.gov is the U.S. government's official web portal to all federal, state and local government web resources and services.